Location: Invercargill
(46.4000°S, 168.3500°E)
Time: 04:18:45
(UTC+13:00)

Resurs 01 Rocket - Pass Details

Date: 24 January 2019
Orbit: 635 x 644 km, 98.0° (Epoch: 17 October)

Event Time Altitude Azimuth Distance (km) Brightness Sun altitude
Rises 23:10:44 0° 169° (S) 2,983 5.6 -14.2°
Reaches altitude 10° 23:12:58 10° 170° (S) 2,065 4.8 -14.5°
Maximum altitude 23:17:28 73° 254° (WSW) 682 1.9 -15.0°
Drops below altitude 10° 23:21:53 10° 338° (NNW) 2,033 3.9 -15.4°
Enters shadow 23:22:41 - 338° (NNW) 2,363 4.2 -15.5°
